This demonstration page uses our WeatherBlox Daily Observations layout. Learn more.

Left ArrowRight Arrow

41.12389, -100.76542

Hourly Observations for November 26, 2016

Temp ( °F °C ) Dew Point ( °F °C ) Humidity (%) Winds ( mph kmh ) Pressure ( in mb ) Visibility ( mi km ) Precip ( " mm )
12:53 am 00:53 Clear 29 -1.7 20 -6.7 69 69 NW 6 9 30.19 1022 10 16 0.00 0.00
1:53 am 01:53 Clear 24 -4.4 18 -7.8 77 77 NNW 3 6 30.17 1022 10 16 0.00 0.00
2:53 am 02:53 Clear 19 -7.2 15 -9.4 84 84 NNW 3 6 30.18 1022 10 16 0.00 0.00
3:53 am 03:53 Clear 21 -6.1 16 -8.9 81 81 WNW 7 11 30.17 1022 10 16 0.00 0.00
4:53 am 04:53 Clear 22 -5.6 18 -7.8 85 85 Calm 30.18 1022 10 16 0.00 0.00
5:53 am 05:53 Clear 19 -7.2 15 -9.4 84 84 Calm 30.20 1023 10 16 0.00 0.00
6:53 am 06:53 Clear 19 -7.2 15 -9.4 84 84 NW 7 11 30.21 1023 10 16 0.00 0.00
7:53 am 07:53 Sunny 18 -7.8 15 -9.4 88 88 NNW 5 7 30.21 1023 10 16 0.00 0.00
8:53 am 08:53 Sunny 24 -4.4 20 -6.7 84 84 Calm 30.21 1023 10 16 0.00 0.00
9:53 am 09:53 Sunny 30 -1.1 25 -3.9 82 82 NW 3 6 30.19 1023 10 16 0.00 0.00
10:53 am 10:53 Sunny 40 4.4 28 -2.2 63 63 W 6 9 30.18 1022 10 16 0.00 0.00
11:53 am 11:53 Sunny 44 6.7 29 -1.7 55 55 WNW 3 6 30.14 1021 10 16 0.00 0.00
12:53 pm 12:53 Sunny 50 10 28 -2.2 43 43 W 5 7 30.11 1020 10 16 0.00 0.00
1:53 pm 13:53 Sunny 57 13.9 26 -3.3 30 30 W 7 11 30.09 1019 10 16 0.00 0.00
2:53 pm 14:53 Sunny 60 15.6 23 -5 24 24 W 6 9 30.06 1018 10 16 0.00 0.00
3:53 pm 15:53 Sunny 59 15 25 -3.9 27 27 WSW 5 7 30.05 1018 10 16 0.00 0.00
4:53 pm 16:53 Sunny 54 12.2 26 -3.3 34 34 SW 3 6 30.04 1017 10 16 0.00 0.00
5:53 pm 17:53 Clear 40 4.4 27 -2.8 60 60 Calm 30.06 1018 10 16 0.00 0.00
6:53 pm 18:53 Clear 35 1.7 23 -5 61 61 SE 6 9 30.06 1018 10 16 0.00 0.00
7:53 pm 19:53 Clear 29 -1.7 21 -6.1 72 72 SE 5 7 30.06 1018 10 16 0.00 0.00
8:53 pm 20:53 Clear 29 -1.7 20 -6.7 69 69 Calm 30.03 1017 10 16 0.00 0.00
9:53 pm 21:53 Clear 24 -4.4 19 -7.2 81 81 NW 3 6 30.01 1016 10 16 0.00 0.00
10:53 pm 22:53 Clear 22 -5.6 17 -8.3 82 82 NNW 3 6 29.97 1015 10 16 0.00 0.00
11:53 pm 23:53 Clear 21 -6.1 17 -8.3 85 85 Calm 29.93 1014 10 16 0.00 0.00

Powered by AerisWeather